, NM

(GMT )
Holloman AFB

Weather History for KHMN - November, 2013

Change the Weather History Date:

Monday, November 18, 2013

  Actual Average Record
Temperature  
Mean Temperature 55 °F -  
Max Temperature 67 °F 60 °F 75 °F (1999)
Min Temperature 43 °F 32 °F 18 °F (2014)
Degree Days  
Heating Degree Days 10    
Growing Degree Days 5 (Base 50)    
Moisture  
Dew Point 35 °F    
Average Humidity 54    
Maximum Humidity 76    
Minimum Humidity 27    
Precipitation  
Precipitation 0.00 in - - ()
Sea Level Pressure  
Sea Level Pressure 30.04 in    
Wind  
Wind Speed 4 mph (NNE)    
Max Wind Speed 8 mph    
Max Gust Speed -    
Visibility 10 miles    
Events      
Averages and records for this station are not official NWS values.
T = Trace of Precipitation, MM = Missing Value Source: NWS Daily Summary

Daily Weather History Graph

Daily Weather History Graph

Search for Another Location

Airport or City:

Trip Planner

Search our weather history database for the weather conditions in past years. The results will help you decide how hot, cold, wet, or windy it might be!

Date:

Astronomy

Nov. 18, 2013 Rise Set
Actual Time 6:37 AM MST 5:01 PM MST
Civil Twilight 6:11 AM MST 5:27 PM MST
Nautical Twilight 5:41 AM MST 5:57 PM MST
Astronomical Twilight 5:12 AM MST 6:27 PM MST
Moon 6:06 PM MST (11/18) 7:28 AM MST (11/18)
Length of Visible Light 11h 16m
Length of Day
10h 23m
Full, 99% of the Moon is Illuminated
Nov 18
Full
Nov 25
Last Quarter
Dec 2
New
Dec 9
First Quarter
Dec 17
Full

Hourly Weather History & Observations

Time (MST) Temp. Windchill Dew Point Humidity Pressure Visibility Wind Dir Wind Speed Gust Speed Precip Events Conditions
12:58 AM 50.7 °F - 34.0 °F 53% 29.99 in 10.0 mi North 2.3 mph - N/A   Clear
1:58 AM 45.7 °F 42.0 °F 36.0 °F 69% 30.01 in 10.0 mi NNW 6.9 mph - N/A   Clear
2:58 AM 45.3 °F 42.3 °F 36.7 °F 72% 30.00 in 10.0 mi North 5.8 mph - N/A   Clear
3:58 AM 47.7 °F - 36.7 °F 66% 30.00 in 10.0 mi East 5.8 mph - N/A   Clear
4:58 AM 48.0 °F - 35.4 °F 62% 30.02 in 10.0 mi East 5.8 mph - N/A   Clear
5:58 AM 45.7 °F 43.4 °F 37.6 °F 73% 30.07 in 10.0 mi West 4.6 mph - N/A   Clear
6:58 AM 44.4 °F 42.9 °F 37.4 °F 76% 30.09 in 10.0 mi NNW 3.5 mph - N/A   Clear
7:58 AM 47.1 °F - 38.5 °F 72% 30.12 in 10.0 mi Calm Calm - N/A   Clear
8:58 AM 50.9 °F - 37.4 °F 60% 30.09 in 10.0 mi NNE 5.8 mph - N/A   Clear
9:58 AM 56.7 °F - 37.8 °F 49% 30.11 in 10.0 mi WNW 1.2 mph - N/A   Clear
10:58 AM 59.9 °F - 37.0 °F 43% 30.10 in 10.0 mi South 4.6 mph - N/A   Clear
11:58 AM 62.2 °F - 36.9 °F 39% 30.07 in 10.0 mi NE 1.2 mph - N/A   Clear
12:58 PM 64.8 °F - 33.4 °F 31% 30.02 in 10.0 mi NNW 2.3 mph - N/A   Clear
1:58 PM 66.6 °F - 33.6 °F 29% 30.01 in 10.0 mi Calm Calm - N/A   Clear
2:58 PM 67.8 °F - 32.9 °F 27% 29.99 in 10.0 mi SW 5.8 mph - N/A   Clear
3:59 PM 66.9 °F - 31.5 °F 27% 29.98 in 10.0 mi SSE 2.3 mph - N/A   Clear
4:58 PM 65.5 °F - 34.0 °F 31% 29.98 in 10.0 mi WNW 6.9 mph - N/A   Clear
5:58 PM 56.3 °F - 39.6 °F 53% 30.02 in 10.0 mi NNW 6.9 mph - N/A   Clear
6:58 PM 52.7 °F - 37.0 °F 55% 30.04 in 10.0 mi ENE 6.9 mph - N/A   Clear
7:58 PM 49.1 °F - 35.6 °F 60% 30.04 in 10.0 mi ESE 6.9 mph - N/A   Clear
8:58 PM 48.4 °F - 33.1 °F 56% 30.04 in 10.0 mi East 8.1 mph - N/A   Clear
9:58 PM 47.7 °F - 33.1 °F 57% 30.04 in 10.0 mi ENE 2.3 mph - N/A   Clear
10:58 PM 43.0 °F 40.3 °F 32.9 °F 68% 30.04 in 10.0 mi NNW 4.6 mph - N/A   Clear
11:58 PM 43.0 °F 40.3 °F 32.5 °F 67% 30.02 in 10.0 mi North 4.6 mph - N/A   Clear